[[{"header":{"parameterUnit":"m.s-1","parameterCategory":1,"la1":30.2991,"la2":30.254,"lo1":-89.0895,"lo2":-89.0444,"dy":0.0017,"dx":0.0017,"nx":28,"ny":28,"refTime":"2025-07-28T03:00:00:Z","depth":0,"parameterNumber":2,"parameterNumberName":"U-component_of_WINDS"},"data":[0,0,0,0,0,0,0,0,0,0,0,0,0,0,0,0,0,0,0,0,0,0,0,0,0,0,0,0,0,0,0,0,0,0,0,0,0,0,0,0,0,0,0,0,0,0,0,0,0,0,0,0,0,0,0,0,0,0,3.3411,3.3412,0,3.3431,3.3432,3.3432,3.3326,3.3323,3.332,3.3317,3.3337,3.334,3.3344,0,0,0,0,0,0,0,0,0,0,0,0,0,3.328,3.3283,3.3411,3.3412,3.3412,3.3431,3.3432,3.3432,3.3326,3.3323,3.3319,3.3315,3.3336,3.334,3.3344,0,0,0,0,0,0,0,0,0,0,0,0,0,3.3323,3.3284,3.3411,3.3362,3.3357,3.3431,3.3432,3.3432,3.3327,3.3322,3.3318,3.3314,3.3335,3.334,3.3345,3.3467,0,0,3.336,3.3362,0,0,0,0,0,0,0,0,3.332,3.3328,3.3369,3.3365,3.336,3.3371,3.3393,3.3444,3.3328,3.3339,3.3317,3.3311,3.3352,3.3355,3.3369,3.3468,3.3469,3.336,3.3364,3.3366,3.3367,0,0,0,0,0,0,0,3.3318,3.3326,3.3419,3.3369,3.3364,3.3338,3.3339,3.3402,3.3371,3.3337,3.333,3.3333,3.3349,3.3365,3.3369,3.3469,3.336,3.3365,3.3368,3.337,3.3667,3.3672,0,0,0,0,0,0,3.3321,3.3324,3.3419,3.342,3.3329,3.3344,3.3345,3.3372,3.337,3.3365,3.3337,3.3328,3.3358,3.3363,3.3369,3.351,3.3366,3.337,3.3373,3.3662,3.3668,3.3673,0,0,0,0,0,0,3.3319,3.3331,3.3418,3.337,3.3379,3.3351,3.3383,3.3375,3.3391,3.337,3.3364,3.3359,3.3355,3.3362,3.3443,3.351,3.3373,3.3377,3.3657,3.3664,3.3671,3.3795,0,0,0,0,0,0,3.3316,3.3331,3.3377,3.3372,3.3382,3.3492,3.3387,3.3379,3.34,3.3388,3.3388,3.3384,3.3352,3.3436,3.3448,3.3514,3.3381,3.365,3.366,3.3668,3.3785,3.3806,3.3824,0,0,0,0,0,3.3311,3.3412,3.338,3.3392,3.344,3.3496,3.3502,3.3463,3.3406,3.3452,3.3438,3.3384,3.3501,3.3445,3.3458,3.3527,3.3646,3.3657,3.3668,3.3776,3.3802,3.3823,0,0,0,0,0,0,3.3427,3.3411,3.3375,3.3477,3.3489,3.3478,3.3535,3.3491,3.3519,3.3507,3.3457,3.3458,3.3547,3.3545,3.3483,3.3644,3.3563,3.3577,3.3642,3.3666,3.3685,3.3682,3.3385,0,0,0,0,0,3.3464,3.3511,3.3495,3.3586,3.3594,3.3564,3.3587,3.3556,3.3566,3.357,3.3562,3.3574,3.3612,3.3639,3.3674,3.3785,3.3782,3.3838,3.3858,3.3874,3.3886,3.3942,3.3966,3.3709,3.3709,3.3709,0,0,3.3541,3.3538,3.3571,3.3609,3.3614,3.3664,3.3569,3.3625,3.3661,3.3578,3.3653,3.3649,3.3658,3.3754,3.3796,3.3755,3.3956,3.3888,3.39,3.3904,3.3955,3.398,3.4001,3.3717,3.3715,3.3714,0,0,3.3707,3.3711,3.3786,3.3793,3.3802,3.3781,3.38,3.3796,3.3789,3.3863,3.3802,3.3844,3.3913,3.3921,3.3934,3.4102,3.4053,3.4115,3.4216,3.4271,3.4291,3.4309,3.4366,3.4388,3.4128,3.4128,3.4128,0,3.3802,3.3874,3.383,3.3891,3.3908,3.3836,3.3911,3.392,3.394,3.3954,3.3908,3.3991,3.3993,3.4088,3.4129,3.4143,3.4161,3.4114,3.4292,3.4309,3.4325,3.4379,3.4401,3.4135,3.4135,3.4134,3.4133,0,3.3989,3.404,3.4099,3.412,3.4144,3.4212,3.4178,3.4208,3.4175,3.4159,3.4235,3.4234,3.4267,3.4287,3.4256,3.4378,3.4352,3.43,3.4218,3.4357,3.4407,3.4428,3.4146,3.4143,3.4141,3.4139,0,0,3.4227,3.4222,3.4244,3.4252,3.4256,3.4294,3.4358,3.4389,3.4415,3.4432,3.4482,3.4542,3.4493,3.4509,3.4477,3.4526,3.4656,3.4467,3.4467,3.4501,3.4788,3.4826,3.4851,3.4624,3.4628,3.4631,3.4787,0,3.4387,3.4495,3.4457,3.4567,3.4612,3.4544,3.4599,3.4608,3.4594,3.463,3.4615,3.4657,3.4591,3.46,3.4645,3.4631,3.4713,3.4619,3.467,3.4672,3.4667,3.4877,3.4918,3.5064,3.4806,3.481,3.4812,0,3.4588,3.4611,3.4726,3.472,3.4738,3.4788,3.4813,3.4849,3.4856,3.4843,3.486,3.4818,3.4879,3.4798,3.4881,3.4818,3.4837,3.4833,3.4837,3.4839,3.4749,3.4882,3.511,3.5132,3.4843,3.4841,3.4838,0,3.4747,3.4807,3.4883,3.4892,3.4888,3.4925,3.4925,3.4928,3.4948,3.497,3.4983,3.5012,3.5028,3.5051,3.5017,3.4962,3.5104,3.5021,3.5094,3.5094,3.5125,3.5123,3.5357,3.5141,3.5141,3.514,3.514,0,3.4928,3.5,3.4954,3.5,3.5078,3.5034,3.5113,3.5105,3.5109,3.5152,3.5095,3.5137,3.5091,3.5128,3.5103,3.5173,3.5182,3.5172,3.5163,3.5175,3.5176,3.5185,3.5173,3.5146,3.5145,3.5144,3.5143,0,3.5118,3.509,3.5167,3.5157,3.5157,3.5215,3.5205,3.5247,3.523,3.5285,3.5295,3.5268,3.5309,3.5278,3.5319,3.5301,3.5394,3.5373,3.5391,3.5385,3.5458,3.545,3.5704,3.5734,3.5501,3.5503,3.5505,0,3.5234,3.5288,3.5283,3.5308,3.5311,3.5352,3.5372,3.5331,3.5355,3.5367,3.5407,3.5443,3.5469,3.5537,3.552,3.555,3.5528,3.5615,3.5532,3.5541,3.5526,3.5522,3.5526,3.5631,3.5633,3.5636,3.5637,0,3.5443,3.5426,3.5457,3.5484,3.551,3.5529,3.5544,3.5567,3.5525,3.5555,3.5595,3.5616,3.5656,3.5692,3.5716,3.5715,3.5669,3.5664,3.5682,3.5693,3.5701,3.5695,3.5434,3.5658,3.5656,3.5654,3.5653,3.5652,3.5597,3.5641,3.5644,3.568,3.5687,3.5702,3.574,3.5727,3.576,3.5789,3.5763,3.5812,3.5816,3.5844,3.5849,3.5886,3.585,3.5876,3.5883,3.5889,3.5898,3.5697,3.589,3.589,3.5889,3.5889,3.5888,0,3.58,3.5799,3.5833,3.5855,3.5883,3.5838,3.5852,3.5878,3.5921,3.593,3.5956,3.6002,3.6036,3.6022,3.6052,3.6084,3.6063,3.6093,3.6089,3.6089,3.593,3.591,3.6109,3.6109,3.6109,3.6109,3.6109,3.6108,3.5909,3.5979,3.5963,3.6036,3.6034,3.608,3.6091,3.6104,3.611,3.6164,3.6192,3.6182,3.6181,3.621,3.6239,3.6234,3.6247,3.6284,3.6271,3.6122,3.61,3.608,3.6061,3.6287,3.6288,3.6426,3.6427,3.6428]},{"header":{"parameterUnit":"m.s-1","parameterCategory":1,"la1":30.2991,"la2":30.254,"lo1":-89.0895,"lo2":-89.0444,"dy":0.0017,"dx":0.0017,"nx":28,"ny":28,"refTime":"2025-07-28T03:00:00:Z","depth":0,"parameterNumber":3,"parameterNumberName":"V-component_of_WINDS"},"data":[0,0,0,0,0,0,0,0,0,0,0,0,0,0,0,0,0,0,0,0,0,0,0,0,0,0,0,0,0,0,0,0,0,0,0,0,0,0,0,0,0,0,0,0,0,0,0,0,0,0,0,0,0,0,0,0,0,0,2.3538,2.3539,0,2.358,2.358,2.358,2.3579,2.3579,2.3578,2.3577,2.3618,2.3619,2.3621,0,0,0,0,0,0,0,0,0,0,0,0,0,2.3458,2.3459,2.3538,2.3539,2.3539,2.3579,2.358,2.3581,2.3579,2.3579,2.3578,2.3577,2.3617,2.3619,2.3621,0,0,0,0,0,0,0,0,0,0,0,0,0,2.3495,2.346,2.3538,2.3544,2.3545,2.3579,2.358,2.3581,2.3579,2.3579,2.3578,2.3577,2.3617,2.3619,2.3621,2.3653,0,0,2.3629,2.363,0,0,0,0,0,0,0,0,2.3493,2.3498,2.3542,2.3543,2.3544,2.3573,2.3566,2.3605,2.358,2.3566,2.3577,2.3576,2.3604,2.3607,2.3617,2.3655,2.3657,2.3629,2.363,2.3632,2.3632,0,0,0,0,0,0,0,2.3491,2.3496,2.3555,2.3543,2.3544,2.3544,2.3548,2.3574,2.3589,2.3567,2.3567,2.3572,2.3604,2.3614,2.3618,2.3657,2.3629,2.3631,2.3633,2.3634,2.3723,2.3724,0,0,0,0,0,0,2.3487,2.3494,2.3553,2.3556,2.3516,2.3546,2.3551,2.3565,2.3589,2.3592,2.3573,2.3572,2.3611,2.3615,2.3619,2.3657,2.3632,2.3634,2.3635,2.3723,2.3724,2.3725,0,0,0,0,0,0,2.3485,2.3492,2.3552,2.3525,2.3533,2.3548,2.3564,2.3566,2.3576,2.3593,2.3596,2.3581,2.361,2.3616,2.3645,2.3658,2.3635,2.3637,2.3721,2.3723,2.3724,2.3733,0,0,0,0,0,0,2.3483,2.3492,2.3504,2.3525,2.3534,2.3577,2.3565,2.3568,2.3581,2.358,2.3601,2.3604,2.361,2.3641,2.3647,2.3661,2.3639,2.372,2.3722,2.3724,2.3732,2.3735,2.3737,0,0,0,0,0,2.348,2.3505,2.3505,2.3512,2.355,2.3578,2.3583,2.359,2.3582,2.3594,2.3605,2.3603,2.3656,2.3644,2.3651,2.3666,2.3719,2.3722,2.3724,2.373,2.3734,2.3737,0,0,0,0,0,0,2.3484,2.3507,2.3508,2.354,2.3557,2.3577,2.3593,2.3594,2.3613,2.3611,2.3619,2.3624,2.3652,2.3662,2.3648,2.3697,2.3687,2.369,2.3689,2.3693,2.3696,2.3692,2.3641,0,0,0,0,0,2.3489,2.3509,2.3529,2.3556,2.3564,2.3577,2.359,2.3594,2.3612,2.3618,2.3631,2.3648,2.3669,2.3682,2.3702,2.3734,2.3738,2.3747,2.375,2.3752,2.3755,2.3772,2.3776,2.3732,2.3732,2.3732,0,0,2.3498,2.3514,2.3526,2.3557,2.357,2.3591,2.3583,2.3606,2.3621,2.3622,2.365,2.366,2.3679,2.371,2.3724,2.3719,2.3768,2.3755,2.3757,2.3758,2.3774,2.3778,2.3782,2.3733,2.3733,2.3733,0,0,2.3526,2.354,2.3564,2.3578,2.3599,2.3607,2.3613,2.3634,2.3641,2.3669,2.367,2.3689,2.3724,2.3737,2.3749,2.3783,2.3781,2.3789,2.3803,2.3819,2.3823,2.3826,2.3837,2.3841,2.3792,2.3792,2.3792,0,2.3535,2.3567,2.3575,2.3598,2.3611,2.3614,2.3637,2.365,2.3676,2.3685,2.368,2.3724,2.3737,2.377,2.3779,2.3789,2.3795,2.3786,2.3822,2.3825,2.3828,2.3838,2.3842,2.3793,2.3793,2.3793,2.3792,0,2.3576,2.3598,2.3615,2.364,2.3655,2.3678,2.369,2.3705,2.3708,2.3717,2.3746,2.3762,2.3785,2.3794,2.3797,2.3828,2.3824,2.382,2.3809,2.3833,2.3842,2.3847,2.3794,2.3793,2.3793,2.3793,0,0,2.3605,2.3636,2.3642,2.3653,2.3677,2.3694,2.3717,2.374,2.3752,2.3771,2.3789,2.382,2.3817,2.383,2.3835,2.385,2.3874,2.3844,2.3844,2.3847,2.3907,2.3909,2.3913,2.3874,2.3875,2.3876,2.3905,0,2.3634,2.3675,2.3684,2.3719,2.3739,2.3743,2.3763,2.3779,2.3789,2.3807,2.3818,2.3839,2.3834,2.3842,2.3857,2.3868,2.3886,2.3866,2.389,2.3891,2.3883,2.3918,2.392,2.3947,2.3909,2.391,2.391,0,2.3672,2.3692,2.3729,2.375,2.3759,2.3777,2.3799,2.3817,2.3836,2.3842,2.3857,2.3861,2.3885,2.3874,2.3907,2.3893,2.3904,2.3911,2.3912,2.3913,2.3901,2.3918,2.3956,2.3959,2.3917,2.3916,2.3916,0,2.3688,2.3724,2.375,2.376,2.3786,2.3798,2.381,2.3828,2.3841,2.3861,2.3869,2.3891,2.3902,2.3919,2.3928,2.392,2.396,2.395,2.3964,2.3964,2.3971,2.397,2.4008,2.3981,2.3981,2.3981,2.3981,0,2.3718,2.374,2.3758,2.3774,2.3799,2.3809,2.3834,2.3845,2.3862,2.388,2.3885,2.3902,2.3914,2.3933,2.3941,2.3965,2.3971,2.3976,2.3977,2.3974,2.3973,2.398,2.3978,2.3982,2.3982,2.3982,2.3981,0,2.3738,2.3751,2.378,2.3803,2.3809,2.3826,2.3845,2.3861,2.3871,2.3894,2.39,2.3916,2.3939,2.3951,2.3978,2.3983,2.4011,2.4012,2.4004,2.4005,2.4017,2.4015,2.406,2.4066,2.4036,2.4036,2.4037,0,2.3755,2.3772,2.3797,2.381,2.3821,2.3842,2.3855,2.3867,2.3881,2.3905,2.3917,2.394,2.3958,2.3994,2.4008,2.4029,2.403,2.4044,2.4033,2.4029,2.4028,2.4026,2.4027,2.4045,2.4045,2.4046,2.4046,0,2.3784,2.379,2.3809,2.3831,2.3848,2.3866,2.3883,2.3894,2.3908,2.3924,2.3947,2.3961,2.399,2.4012,2.4035,2.4046,2.4048,2.405,2.4054,2.405,2.4044,2.4046,2.4008,2.4048,2.4048,2.4047,2.4047,2.4047,2.3802,2.3817,2.3837,2.3859,2.3873,2.389,2.3906,2.3919,2.3938,2.3962,2.3969,2.3993,2.4012,2.4042,2.4054,2.4073,2.407,2.4076,2.4077,2.4078,2.4078,2.4043,2.4077,2.4077,2.4077,2.4077,2.4077,0,2.383,2.3843,2.3863,2.3887,2.3905,2.3907,2.3926,2.394,2.3962,2.3979,2.3998,2.4024,2.4046,2.4062,2.4084,2.4096,2.4098,2.4102,2.41,2.4102,2.408,2.4074,2.41,2.41,2.41,2.41,2.41,2.41,2.3846,2.3871,2.3879,2.3912,2.3925,2.3949,2.396,2.3976,2.399,2.4019,2.4037,2.4048,2.4065,2.4089,2.4109,2.4113,2.412,2.4124,2.4128,2.4106,2.4104,2.4101,2.4095,2.4126,2.4126,2.4148,2.4148,2.4148]}]]